This is the latest recevied weather packets stored in our database for station/object 4S6DRJ-13. If no packets are shown the sender has not sent any weather packets the latest 1 day(s).
| Time | Temp. | Humidity | Pressure | Rain* | Wind** | Luminosity | Snow |
|---|---|---|---|---|---|---|---|
| 1778152858 | 30° C | 71% | 1002.8 hPa | 0 mm | 0.89 m/s, 257° | 34 W/m² | - |
| 1778152675 | 30° C | 71% | 1002.8 hPa | 0 mm | 0.45 m/s, 230° | 38 W/m² | - |
| 1778152614 | 30° C | 71% | 1002.7 hPa | 0 mm | 1.34 m/s, 251° | 40 W/m² | - |
| 1778152553 | 30° C | 72% | 1002.7 hPa | 0 mm | 0.45 m/s, 297° | 41 W/m² | - |
| 1778152431 | 30° C | 71% | 1002.7 hPa | 0 mm | 0.45 m/s, 269° | 45 W/m² | - |
| 1778152370 | 30° C | 71% | 1002.7 hPa | 0 mm | 0.89 m/s, 327° | 47 W/m² | - |
| 1778152309 | 30° C | 71% | 1002.7 hPa | 0 mm | 0.89 m/s, 283° | 48 W/m² | - |
| 1778152187 | 30° C | 71% | 1002.6 hPa | 0 mm | 1.34 m/s, 314° | 52 W/m² | - |
| 1778152065 | 30° C | 71% | 1002.6 hPa | 0 mm | 1.34 m/s, 104° | 56 W/m² | - |
| 1778152004 | 30° C | 72% | 1002.7 hPa | 0 mm | 0.45 m/s, 248° | 57 W/m² | - |
| 1778151943 | 30° C | 71% | 1002.5 hPa | 0 mm | 0.89 m/s, 260° | 59 W/m² | - |
| 1778151821 | 30.56° C | 72% | 1002.7 hPa | 0 mm | 1.34 m/s, 330° | 62 W/m² | - |
| 1778151760 | 30.56° C | 72% | 1002.5 hPa | 0 mm | 0.45 m/s, 243° | 63 W/m² | - |
| 1778151699 | 30.56° C | 72% | 1002.6 hPa | 0 mm | 1.79 m/s, 280° | 65 W/m² | - |
| 1778151394 | 30.56° C | 72% | 1002.7 hPa | 0 mm | 1.34 m/s, 154° | 69 W/m² | - |
| 1778151272 | 30.56° C | 71% | 1002.7 hPa | 0 mm | 1.34 m/s, 242° | 67 W/m² | - |
| 1778150967 | 30.56° C | 73% | 1002.6 hPa | 0 mm | 0.45 m/s, 278° | 69 W/m² | - |
| 1778150846 | 30.56° C | 73% | 1002.7 hPa | 0 mm | 0.89 m/s, 209° | 74 W/m² | - |
| 1778150662 | 30.56° C | 73% | 1002.7 hPa | 0 mm | 0 m/s | 81 W/m² | - |
| 1778150479 | 30.56° C | 72% | 1002.6 hPa | 0 mm | 1.79 m/s, 119° | 91 W/m² | - |
| 1778150235 | 30.56° C | 72% | 1002.6 hPa | 0 mm | 0.89 m/s, 205° | 102 W/m² | - |
| 1778150114 | 30.56° C | 72% | 1002.3 hPa | 0 mm | 1.34 m/s, 289° | 108 W/m² | - |
| 1778150052 | 30.56° C | 72% | 1002.4 hPa | 0 mm | 0.89 m/s, 255° | 110 W/m² | - |
| 1778149991 | 30.56° C | 72% | 1002.3 hPa | 0 mm | 0.45 m/s, 283° | 114 W/m² | - |
| 1778149930 | 30.56° C | 72% | 1002.4 hPa | 0 mm | 0.89 m/s, 257° | 117 W/m² | - |
* Rain latest hour (hover to see other rain measurements)
** Current wind speed in m/s (hover to see current wind gust speed)